Location: Vancouver
(49.2500°N, 123.1330°W)
Time: 06:43:44
(UTC-07:00)

YAOGAN 6 - Visible Passes

Search period start: 01 September 2014 00:00
Search period end: 11 September 2014 00:00
Orbit: 483 x 527 km, 97.3° (Epoch: 01 September)

Date Brightness Start Highest point End Pass type
(mag) Time Alt. Az. Time Alt. Az. Time Alt. Az.
01 Sep 3.8 22:43:41 35° NNE 22:43:41 35° NNE 22:46:13 10° N visible
02 Sep 5.6 00:18:28 12° WNW 00:18:28 12° WNW 00:19:02 10° NW visible
02 Sep 4.1 22:25:30 27° NE 22:25:30 27° NE 22:27:55 10° N visible
03 Sep 5.3 00:00:17 17° NW 00:00:17 17° NW 00:01:33 10° NW visible
03 Sep 4.5 22:07:18 20° NE 22:07:18 20° NE 22:09:28 10° NNE visible
03 Sep 5.0 23:42:05 22° NW 23:42:05 22° NW 23:43:47 10° NNW visible
04 Sep 4.8 21:49:06 14° NE 21:49:06 14° NE 21:50:45 10° NNE visible
04 Sep 4.7 23:23:54 28° NNW 23:23:54 28° NNW 23:25:50 10° NNW visible
05 Sep 4.4 23:05:41 31° N 23:05:41 31° N 23:07:45 10° NNW visible
06 Sep 4.3 22:47:29 29° N 22:47:29 29° N 22:49:34 10° N visible
07 Sep 4.4 22:29:16 25° NNE 22:29:16 25° NNE 22:31:15 10° N visible
08 Sep 5.7 00:04:03 13° NW 00:04:03 13° NW 00:04:45 10° NW visible
08 Sep 4.7 22:11:03 19° NE 22:11:03 19° NE 22:12:48 10° NNE visible
08 Sep 5.4 23:45:50 17° NW 23:45:50 17° NW 23:46:59 10° NNW visible
09 Sep 4.9 21:52:50 14° NE 21:52:50 14° NE 21:54:08 10° NNE visible
09 Sep 5.2 23:27:37 21° NNW 23:27:37 21° NNW 23:29:01 10° NNW visible
10 Sep 5.2 21:34:36 10° NE 21:34:36 10° NE 21:34:47 10° NE visible
10 Sep 5.0 23:09:23 23° NNW 23:09:23 23° NNW 23:10:56 10° NNW visible
